sat.trackr.live / text

‹ back to catalog

STARLINK-32694

NORAD 62494 · 2025-003H

PAYLOAD ACTIVE UNKNOWN

§ Identity

Operator
Country
US
Launch date
2025-01-06
Launch site
AFETR
Launch vehicle
Mass (kg)
RCS (m²)

Purposes: comms

External: N2YO · Heavens-Above · Gunter

§ Orbital elements

Epoch: 2026-09-21T17:03:56.886912Z

Period
94.27 min
Inclination
43.0006°
Eccentricity
0.0000449
Mean motion
15.27583619 rev/d
Perigee alt
482.7 km
Apogee alt
483.3 km
Semi-major
6,861.2 km
B*
2.0910e-4
RAAN
261.6717°
Arg perigee
270.7407°
Mean anomaly
89.3393°
Rev number
9,665

§ Raw data

STARLINK-326941 62494U 25003H   26264.71107508  .00005497  00000+0  20910-3 0  99932 62494  43.0006 261.6717 0000449 270.7407  89.3393 15.27583619 96652

JSON: /api/v1/satellites/62494 · /tle

For live sub-satellite position, see the globe view (requires WebGL).

§ Visibility from observer

Set your observer location to see the next 7 days of passes ≥ 10°. The values pass through the URL so the page stays shareable.

No JS? Fill the form by hand. The geolocation button needs JavaScript.